MDT,Max TemperatureF,Mean TemperatureF,Min TemperatureF,Max Dew PointF,MeanDew PointF,Min DewpointF,Max Humidity, Mean Humidity, Min Humidity, Max Sea Level PressureIn, Mean Sea Level PressureIn, Min Sea Level PressureIn, Max VisibilityMiles, Mean VisibilityMiles, Min VisibilityMiles, Max Wind SpeedMPH, Mean Wind SpeedMPH, Max Gust SpeedMPH,PrecipitationIn, CloudCover, Events, WindDirDegrees
2012-9-1,71,58,46,52,46,34,100,76,27,30.29,30.24,30.16,10,10,10,16,4,31,0.00,5,Rain-Thunderstorm,134
2012-9-2,71,53,35,46,36,25,100,64,18,30.35,30.30,30.23,10,8,0,14,4,20,0.00,4,Fog,293
2012-9-3,75,54,32,36,27,19,100,48,13,30.34,30.29,30.25,10,10,10,21,7,29,0.00,0,,290
2012-9-4,73,52,32,28,24,16,81,40,12,30.29,30.26,30.22,10,10,10,26,8,36,0.00,0,,294
2012-9-5,75,52,28,28,23,12,80,41,10,30.30,30.25,30.19,10,10,10,20,7,32,0.00,0,,293
2012-9-6,71,52,32,36,29,23,80,48,17,30.28,30.21,30.15,10,10,10,22,6,31,0.00,4,Rain,305
2012-9-7,69,51,33,36,31,23,93,50,18,30.47,30.38,30.28,10,10,10,15,6,21,0.00,1,,302
2012-9-8,73,52,32,32,27,19,87,47,13,30.52,30.45,30.35,10,10,10,8,5,,0.00,0,,308
2012-9-9,77,54,32,32,26,19,81,42,12,30.38,30.28,30.17,10,10,10,10,5,16,0.00,1,,296
2012-9-10,71,56,41,52,40,32,94,57,27,30.21,30.16,30.09,10,10,3,41,4,58,0.00,3,Rain-Thunderstorm,310
2012-9-11,68,54,41,46,31,18,93,50,16,30.23,30.15,30.13,10,10,10,21,9,29,0.00,0,,299
2012-9-12,66,47,28,30,20,9,93,43,11,30.47,30.33,30.23,10,10,7,21,8,30,0.00,0,,302
2012-9-13,73,52,32,30,19,12,75,26,11,30.59,30.53,30.47,10,10,10,8,5,,0.00,0,,301
2012-9-14,75,52,30,30,23,16,80,42,11,30.56,30.48,30.36,10,10,10,9,5,,0.00,0,,293
2012-9-15,77,54,32,27,22,14,75,39,9,30.42,30.36,30.29,10,10,10,21,7,30,0.00,1,,293
2012-9-16,71,52,32,32,24,19,75,39,14,30.32,30.27,30.20,10,10,10,28,8,41,0.00,3,,285
2012-9-17,68,50,32,32,28,19,93,49,17,30.30,30.26,30.22,10,10,7,18,7,24,0.00,0,Thunderstorm,292
2012-9-18,71,52,33,30,27,23,81,43,16,30.37,30.30,30.25,10,9,7,17,9,23,0.00,0,,302
2012-9-19,73,55,37,28,23,19,57,33,14,30.36,30.31,30.27,10,10,7,16,9,22,0.00,0,,302
2012-9-20,73,55,37,32,25,19,70,40,13,30.35,30.31,30.27,10,9,5,18,9,26,0.00,0,,297
2012-9-21,73,52,32,30,24,19,80,38,13,30.39,30.33,30.29,10,10,7,14,6,,0.00,0,,252
2012-9-22,73,52,32,30,25,19,80,45,13,30.38,30.32,30.26,10,10,10,10,6,,0.00,0,,281
2012-9-23,71,52,33,39,29,19,76,49,16,30.32,30.27,30.22,10,10,10,24,6,38,0.00,3,Rain,287
2012-9-24,64,52,41,45,40,34,100,70,34,30.26,30.19,30.13,10,10,10,17,6,26,0.00,6,Rain-Thunderstorm,300
2012-9-25,62,50,39,45,41,37,100,82,45,30.18,30.14,30.09,10,10,5,21,4,25,0.00,6,Rain-Thunderstorm,322
2012-9-26,64,48,33,46,38,32,100,72,32,30.29,30.20,30.17,10,10,10,14,4,17,0.00,6,Rain-Thunderstorm,298
2012-9-27,66,49,32,45,38,30,100,72,28,30.31,30.27,30.22,10,10,7,10,4,,0.00,2,Rain-Thunderstorm,288
2012-9-28,64,48,32,37,32,28,100,63,26,30.30,30.26,30.18,10,10,10,12,5,17,0.00,1,Thunderstorm,293
2012-9-29,64,48,32,36,32,30,100,60,28,30.35,30.27,30.24,10,10,10,21,7,25,0.00,4,,302
2012-9-30,69,50,30,34,30,25,93,56,18,30.40,30.35,30.30,10,10,10,23,8,30,0.00,1,,292